DECAYED

STARLINK-2626, 48363 (Decayed)

Orbit data source: Space-Track

STARLINK-2626, 48363 was a payload satellite owned by SpaceX/Seattle (US) in LEO that was launched on Tue, 04 May 2021 UTC via an FALCON 9 launch vehicle from the Air Force Eastern Test Range (AFETR). Payload-class satellites include a variety of spacecraft equipped with specific instruments for various scientific and technological missions. These include communications satellites like Starlink; space stations such as the ISS; scientific satellites like the Hubble; Earth observation satellites from companies like Planet Labs, Umbra, and HawkEye 360; GPS; miniature CubeSats for education and research; and military/defense satellites.

Not visible in the next 10 days
Identifier
48363, 2021-038L
Orbit
Decayed
Country
Flag of USUS
Related business
Manufacturer
SpaceX/Seattle
Mission
Decayed Commercial Communications
Bus & Motor
STARLINK, Unknown motor
Mass
260 kg wet, ~248 kg dry
Launch date (UTC)
2021-05-04 (5 years ago)
Launch vehicle
FALCON 9
Launch site
Air Force Eastern Test Range (AFETR)
Object type
Payload
Rocket body
Debris
Shape & HBR
Box + 1 Pan, 10.1 m
Radar Cross Section
13.562 m², Large (>1 m²)

Expand to show TLE details & history
Last TLE update: 6 months ago

TLE from 6 months ago
0 STARLINK-2626
1 48363U 21038L   26003.72577289  .21907786  12299-4  16693-2 0  9990
2 48363  53.0237 186.9266 0007526 246.7496 113.2758 16.39537857258738
Epoch: 2026-01-03T17:25Z
TLE epoch observation values (Epoch: 2026-01-03T17:25:06.777Z)
Latitude
-0.00003°
Longitude
-177.69917°
Altitude
169.908 km
Speed
7.804 km/s
True Right ascension
12h 27m 42s
True Declination
0° 00' 00"
Sunlit
Object was in daylight at epoch
Visualization orbit readout
Latitude
Unknown
Longitude
Unknown
Altitude
Unknown
Speed
Unknown
Apparent Right ascension
Unknown
Apparent Declination
Unknown
Sunlit
N/A
Visualization observer readout
Local Sidereal Time
21:31:03
Azimuth
Unknown
Elevation
Unknown
Doppler factor
Unknown
Orbital elements
Apogee altitude
172.249 km
Perigee altitude
162.397 km
Semi-major axis
6,545.46 km
Eccentricity
0.00075
Inclination
53.0237°
RAAN
186.9266°
Arg. of periapsis
246.7496°
True anomaly
113.35499°
Mean anomaly
113.2758°
Eccentric anomaly
113.3154°
Mean motion
4.09857 °/min
Orbital period
87.84 mins
BSTAR
0.0016693
Loading maneuver chart data...
Computing Atmospheric mass density...

Documentation

Showing up to 5 results
|